Weather History for Middletown, PA

Change the Weather History Date:

Friday, November 9, 2012

  Actual Average Record
Temperature  
Mean Temperature 45 °F 47 °F  
Max Temperature 54 °F 56 °F 75 °F (1895)
Min Temperature 35 °F 37 °F 23 °F (1992)
Degree Days  
Heating Degree Days 20 18  
Month to date heating degree days 202 153  
Since 1 July heating degree days 546 565  
Cooling Degree Days 0 0  
Month to date cooling degree days 0 0  
Year to date cooling degree days 1226 1002  
Moisture  
Dew Point 31 °F    
Average Humidity 63    
Maximum Humidity 85    
Minimum Humidity 41    
Precipitation  
Precipitation 0.00 in 0.10 in 1.16 in (1889)
Month to date precipitation T 0.92  
Year to date precipitation 40.38 35.20  
Snow  
Snow 0.00 in - - ()
Month to date snowfall 0.0  
Since 1 July snowfall 0.0  
Since 1 September snowfall 0.0  
Snow Depth 0.00 in    
Sea Level Pressure  
Sea Level Pressure 30.16 in    
Wind  
Wind Speed 8 mph (WNW)    
Max Wind Speed 20 mph    
Max Gust Speed 23 mph    
Visibility 10 miles    
Events      
T = Trace of Precipitation, MM = Missing Value Source: NWS Daily Summary

Daily Weather History Graph

Daily Weather History Graph

Search for Another Location

Airport:

Trip Planner

Search our weather history database for the weather conditions in past years. The results will help you decide how hot, cold, wet, or windy it might be!

Date:

Astronomy

Nov. 09, 2012 Rise Set
Actual Time 6:46 AM EST 4:55 PM EST
Civil Twilight 6:17 AM EST 5:23 PM EST
Nautical Twilight 5:44 AM EST 5:56 PM EST
Astronomical Twilight 5:13 AM EST 6:28 PM EST
Moon 1:42 AM EST (11/9) 2:07 PM EST (11/9)
Length of Visible Light 11h 06m
Length of Day
10h 08m
Waning Crescent, 23% of the Moon is Illuminated
Nov 9
Waning Crescent
Nov 13
New
Nov 20
First Quarter
Nov 28
Full
Dec 6
Last Quarter

Hourly Weather History & Observations

Time (EST) Temp. Windchill Dew Point Humidity Pressure Visibility Wind Dir Wind Speed Gust Speed Precip Events Conditions
12:56 AM 39.9 °F 33.9 °F 19.0 °F 43% 30.06 in 10.0 mi NNW 9.2 mph - N/A   Clear
1:56 AM 37.9 °F 31.5 °F 21.0 °F 51% 30.07 in 10.0 mi WNW 9.2 mph - N/A   Clear
2:56 AM 39.0 °F 33.4 °F 26.1 °F 60% 30.08 in 10.0 mi WNW 8.1 mph - N/A   Clear
3:56 AM 39.0 °F 31.4 °F 27.0 °F 62% 30.09 in 10.0 mi West 12.7 mph - N/A   Clear
4:56 AM 37.9 °F 30.5 °F 28.0 °F 68% 30.12 in 10.0 mi West 11.5 mph - N/A   Clear
5:56 AM 37.0 °F 29.8 °F 28.0 °F 70% 30.14 in 10.0 mi WNW 10.4 mph - N/A   Clear
6:56 AM 37.9 °F 29.2 °F 28.9 °F 70% 30.16 in 10.0 mi West 15.0 mph - N/A   Clear
7:56 AM 39.9 °F 32.5 °F 30.0 °F 68% 30.17 in 10.0 mi WNW 12.7 mph - N/A   Clear
8:56 AM 43.0 °F 38.2 °F 32.0 °F 65% 30.18 in 10.0 mi WNW 8.1 mph - N/A   Clear
9:56 AM 46.9 °F - 30.9 °F 54% 30.19 in 10.0 mi NNW 16.1 mph 23.0 mph N/A   Clear
10:56 AM 51.1 °F - 32.0 °F 48% 30.19 in 10.0 mi NW 13.8 mph - N/A   Scattered Clouds
11:56 AM 52.0 °F - 32.0 °F 47% 30.18 in 10.0 mi NW 15.0 mph 21.9 mph N/A   Partly Cloudy
12:56 PM 53.1 °F - 33.1 °F 47% 30.16 in 10.0 mi WNW 12.7 mph - N/A   Scattered Clouds
1:56 PM 53.1 °F - 33.1 °F 47% 30.15 in 10.0 mi NW 13.8 mph 19.6 mph N/A   Partly Cloudy
2:56 PM 54.0 °F - 32.0 °F 43% 30.15 in 10.0 mi NNW 6.9 mph - N/A   Clear
3:56 PM 52.0 °F - 34.0 °F 50% 30.15 in 10.0 mi WNW 6.9 mph - N/A   Clear
4:56 PM 45.0 °F - 35.1 °F 68% 30.16 in 10.0 mi Calm Calm - N/A   Clear
5:56 PM 43.0 °F - 33.1 °F 68% 30.18 in 10.0 mi Calm Calm - N/A   Clear
6:56 PM 41.0 °F - 34.0 °F 76% 30.19 in 10.0 mi Calm Calm - N/A   Partly Cloudy
7:56 PM 39.9 °F - 33.1 °F 77% 30.19 in 10.0 mi Calm Calm - N/A   Partly Cloudy
8:56 PM 37.9 °F - 34.0 °F 86% 30.20 in 10.0 mi Calm Calm - N/A   Partly Cloudy
9:56 PM 37.9 °F - 34.0 °F 86% 30.21 in 9.0 mi Calm Calm - N/A   Partly Cloudy
10:56 PM 37.0 °F - 33.1 °F 86% 30.22 in 10.0 mi Calm Calm - N/A   Partly Cloudy
11:56 PM 37.0 °F - 33.1 °F 86% 30.23 in 10.0 mi Calm Calm - N/A   Clear